TimeADT,TemperatureF,Dew PointF,Humidity,Sea Level PressureIn,VisibilityMPH,Wind Direction,Wind SpeedMPH,Gust SpeedMPH,PrecipitationIn,Events,Conditions,WindDirDegrees,DateUTC
12:00 AM,42.8,39.2,87,30.25,15.0,NNE,4.6,-,N/A,,Mostly Cloudy,20,2012-10-10 03:00:00
1:00 AM,46.4,42.8,87,30.24,15.0,ENE,5.8,-,N/A,,Mostly Cloudy,60,2012-10-10 04:00:00
2:00 AM,48.2,44.6,87,30.23,15.0,ENE,8.1,-,N/A,,Overcast,60,2012-10-10 05:00:00
3:00 AM,48,46,92,30.21,15,ENE,8.1,,,,Overcast,60,2012-10-10 06:00:00
3:00 AM,48.2,46.4,93,30.21,15.0,ENE,8.1,-,N/A,,Overcast,60,2012-10-10 06:00:00
4:00 AM,50.0,46.4,87,30.19,15.0,ENE,6.9,-,N/A,,Overcast,70,2012-10-10 07:00:00
5:00 AM,50.0,46.4,87,30.18,15.0,ENE,6.9,-,N/A,,Overcast,70,2012-10-10 08:00:00
5:40 AM,50.0,48.2,94,30.18,6.0,ENE,8.1,-,N/A,,Light Drizzle,70,2012-10-10 08:40:00
6:00 AM,50.0,48.2,94,30.18,6.0,ENE,6.9,-,N/A,,Light Drizzle,60,2012-10-10 09:00:00
6:29 AM,48.2,48.2,100,30.18,3.0,NE,6.9,-,N/A,,Light Drizzle,50,2012-10-10 09:29:00
7:00 AM,50.0,50.0,100,30.18,2.5,NE,5.8,-,N/A,,Light Drizzle,50,2012-10-10 10:00:00
8:00 AM,50.0,50.0,100,30.18,2.0,ENE,5.8,-,N/A,,Light Drizzle,60,2012-10-10 11:00:00
8:34 AM,50.0,50.0,100,30.17,1.5,ENE,4.6,-,N/A,,Light Drizzle,70,2012-10-10 11:34:00
9:00 AM,50,50,100,30.17,1,East,6.9,,,Rain,Light Drizzle,90,2012-10-10 12:00:00
9:00 AM,50.0,50.0,100,30.17,1.2,East,6.9,-,N/A,,Light Drizzle,90,2012-10-10 12:00:00
9:52 AM,51.8,51.8,100,30.17,3.0,ESE,6.9,-,N/A,,Light Drizzle,110,2012-10-10 12:52:00
10:00 AM,51.8,51.8,100,30.17,3.0,ESE,6.9,-,N/A,,Light Drizzle,120,2012-10-10 13:00:00
10:39 AM,53.6,51.8,94,30.15,10.0,ESE,8.1,-,N/A,,Light Drizzle,120,2012-10-10 13:39:00
11:00 AM,53.6,51.8,94,30.14,12.0,ESE,10.4,-,N/A,,Light Drizzle,120,2012-10-10 14:00:00
12:00 PM,53.6,50.0,88,30.13,15.0,SE,10.4,18.4,N/A,,Overcast,130,2012-10-10 15:00:00
1:00 PM,55.4,48.2,77,30.11,15.0,SE,12.7,-,N/A,,Overcast,130,2012-10-10 16:00:00
2:00 PM,57.2,48.2,72,30.09,15.0,SE,12.7,-,N/A,,Overcast,130,2012-10-10 17:00:00
3:00 PM,57,49,67,30.06,15,SE,12.7,,,,Partly Cloudy,140,2012-10-10 18:00:00
3:00 PM,57.2,48.2,72,30.06,15.0,SE,11.5,19.6,N/A,,Mostly Cloudy,140,2012-10-10 18:00:00
4:00 PM,57.2,50.0,77,30.05,15.0,SSE,12.7,-,N/A,,Mostly Cloudy,150,2012-10-10 19:00:00
5:00 PM,55.4,48.2,77,30.03,15.0,SE,10.4,-,N/A,,Mostly Cloudy,140,2012-10-10 20:00:00
6:00 PM,55.4,50.0,82,30.01,15.0,SE,8.1,-,N/A,,Mostly Cloudy,130,2012-10-10 21:00:00
7:00 PM,55.4,48.2,77,30.00,15.0,SE,9.2,-,N/A,,Mostly Cloudy,130,2012-10-10 22:00:00
8:00 PM,53.6,48.2,82,29.98,15.0,SE,10.4,-,N/A,,Mostly Cloudy,130,2012-10-10 23:00:00
9:00 PM,54,49,79,29.96,15,SE,8.1,,,,Mostly Cloudy,130,2012-10-11 00:00:00
9:00 PM,53.6,50.0,88,29.96,15.0,SE,8.1,-,N/A,,Mostly Cloudy,130,2012-10-11 00:00:00
10:00 PM,53.6,50.0,88,29.92,15.0,SE,11.5,-,N/A,,Mostly Cloudy,130,2012-10-11 01:00:00
11:00 PM,53.6,50.0,88,29.88,15.0,SE,11.5,-,N/A,,Mostly Cloudy,130,2012-10-11 02:00:00
11:45 PM,53.6,51.8,94,29.87,15.0,SE,10.4,17.3,N/A,,Overcast,140,2012-10-11 02:45:00